Greenville, SC

11:04 PM EDT on May 27, 2017 (GMT -0400)
Donaldson Center

Weather History for KGYH - February, 2013

Change the Weather History Date:

Saturday, February 2, 2013

  Actual Average (KGMU) Record (KGMU)
Temperature  
Mean Temperature 36 °F -  
Max Temperature 46 °F 51 °F 71 °F (2012)
Min Temperature 26 °F 34 °F 23 °F (1993)
Degree Days  
Heating Degree Days 29    
Moisture  
Dew Point 20 °F    
Average Humidity 61    
Maximum Humidity 100    
Minimum Humidity 23    
Precipitation  
Precipitation 0.01 in - - ()
Sea Level Pressure  
Sea Level Pressure 30.23 in    
Wind  
Wind Speed 5 mph (West)    
Max Wind Speed 12 mph    
Max Gust Speed 16 mph    
Visibility 10 miles    
Events Rain    
Averages and records for this station are not official NWS values.
T = Trace of Precipitation, MM = Missing Value Source: NWS Daily Summary

Daily Weather History Graph

Daily Weather History Graph

Search for Another Location

Airport or City:

Trip Planner

Search our weather history database for the weather conditions in past years. The results will help you decide how hot, cold, wet, or windy it might be!

Date:

Astronomy

Feb. 02, 2013 Rise Set
Actual Time 7:26 AM EST 6:00 PM EST
Civil Twilight 7:00 AM EST 6:26 PM EST
Nautical Twilight 6:30 AM EST 6:56 PM EST
Astronomical Twilight 6:00 AM EST 7:26 PM EST
Moon No Moon Rise 10:55 AM EST (2/2)
Length of Visible Light 11h 26m
Length of Day
10h 33m
Waning Gibbous, 60% of the Moon is Illuminated
Feb 2
Waning Gibbous
Feb 3
Last Quarter
Feb 10
New
Feb 17
First Quarter
Feb 25
Full

Hourly Weather History & Observations

Time (EST) Temp. Windchill Dew Point Humidity Pressure Visibility Wind Dir Wind Speed Gust Speed Precip Events Conditions
12:35 AM 30.2 °F 26.7 °F 8.6 °F 40% 30.33 in 10.0 mi NE 3.5 mph - N/A   Clear
12:55 AM 30.2 °F 26.7 °F 8.6 °F 40% 30.33 in 10.0 mi NE 3.5 mph - N/A   Clear
1:15 AM 28.4 °F 24.6 °F 10.4 °F 47% 30.33 in 10.0 mi NE 3.5 mph - N/A   Clear
1:35 AM 30.2 °F - 8.6 °F 40% 30.34 in 10.0 mi Calm Calm - N/A   Clear
1:55 AM 26.6 °F - 14.0 °F 59% 30.35 in 10.0 mi Calm Calm - N/A   Clear
2:15 AM 28.4 °F 24.6 °F 10.4 °F 47% 30.34 in 10.0 mi East 3.5 mph - N/A   Clear
2:35 AM 28.4 °F 24.6 °F 10.4 °F 47% 30.34 in 10.0 mi East 3.5 mph - N/A   Clear
2:55 AM 28.4 °F - 10.4 °F 47% 30.33 in 10.0 mi Calm Calm - N/A   Clear
3:15 AM 28.4 °F 24.6 °F 10.4 °F 47% 30.33 in 10.0 mi East 3.5 mph - N/A   Clear
3:35 AM 28.4 °F 23.3 °F 10.4 °F 47% 30.33 in 10.0 mi ENE 4.6 mph - N/A   Clear
3:55 AM 26.6 °F 22.6 °F 10.4 °F 51% 30.33 in 10.0 mi ENE 3.5 mph - N/A   Clear
4:15 AM 28.4 °F 22.2 °F 10.4 °F 47% 30.32 in 10.0 mi ENE 5.8 mph - N/A   Clear
4:35 AM 28.4 °F 24.6 °F 8.6 °F 43% 30.32 in 10.0 mi ENE 3.5 mph - N/A   Clear
4:55 AM 26.6 °F 21.2 °F 10.4 °F 51% 30.33 in 10.0 mi East 4.6 mph - N/A   Clear
5:15 AM 26.6 °F 22.6 °F 8.6 °F 47% 30.33 in 10.0 mi ENE 3.5 mph - N/A   Clear
5:35 AM 28.4 °F 24.6 °F 8.6 °F 43% 30.33 in 10.0 mi ENE 3.5 mph - N/A   Clear
7:47 AM 28.4 °F - 6.8 °F 40% 30.36 in 10.0 mi Calm Calm - N/A   Clear
8:47 AM 30.2 °F 26.7 °F 10.4 °F 44% 30.35 in 10.0 mi ENE 3.5 mph - N/A   Clear
9:47 AM 32.0 °F 27.5 °F 8.6 °F 38% 30.34 in 10.0 mi SE 4.6 mph - N/A   Clear
10:47 AM 35.6 °F 30.7 °F 8.6 °F 33% 30.32 in 10.0 mi South 5.8 mph - N/A   Clear
11:47 AM 39.2 °F 35.9 °F 10.4 °F 31% 30.28 in 10.0 mi WSW 4.6 mph - N/A   Clear
12:47 PM 41.0 °F 37.1 °F 10.4 °F 29% 30.26 in 10.0 mi West 5.8 mph - N/A   Mostly Cloudy
1:47 PM 44.6 °F 40.7 °F 8.6 °F 23% 30.20 in 10.0 mi West 6.9 mph 16.1 mph N/A   Mostly Cloudy
2:47 PM 46.4 °F 41.9 °F 10.4 °F 23% 30.17 in 10.0 mi West 9.2 mph - N/A   Mostly Cloudy
3:47 PM 42.8 °F 37.5 °F 24.8 °F 49% 30.14 in 10.0 mi WSW 9.2 mph - N/A   Mostly Cloudy
4:47 PM 42.8 °F 40.1 °F 24.8 °F 49% 30.12 in 10.0 mi WSW 4.6 mph - N/A   Mostly Cloudy
5:47 PM 41.0 °F 39.0 °F 30.2 °F 65% 30.11 in 10.0 mi WNW 3.5 mph - N/A   Overcast
6:47 PM 39.2 °F 35.0 °F 35.6 °F 87% 30.12 in 10.0 mi WNW 5.8 mph - N/A Rain Rain
8:15 PM 35.6 °F 29.2 °F 35.6 °F 100% 30.12 in 7.0 mi SW 8.1 mph - N/A Rain Light Rain
8:35 PM 35.6 °F 29.2 °F 35.6 °F 100% 30.13 in 7.0 mi WSW 8.1 mph - N/A   Drizzle
8:47 PM 37.4 °F 30.8 °F 35.6 °F 93% 30.13 in 7.0 mi West 9.2 mph - N/A Rain Light Rain
8:55 PM 35.6 °F 28.0 °F 35.6 °F 100% 30.12 in 7.0 mi West 10.4 mph - N/A   Drizzle
9:15 PM 37.4 °F 32.1 °F 35.6 °F 93% 30.12 in 7.0 mi West 6.9 mph - N/A   Overcast
9:35 PM 37.4 °F 30.3 °F 35.6 °F 93% 30.12 in 7.0 mi West 10.4 mph - 0.01 in   Overcast
9:55 PM 37.4 °F 30.3 °F 35.6 °F 93% 30.11 in 10.0 mi WSW 10.4 mph - 0.01 in   Overcast
10:15 PM 37.4 °F 30.8 °F 37.4 °F 100% 30.10 in 10.0 mi WSW 9.2 mph - N/A   Overcast
10:35 PM 37.4 °F 30.8 °F 37.4 °F 100% 30.08 in 10.0 mi WSW 9.2 mph - N/A   Overcast
10:55 PM 37.4 °F 29.8 °F 37.4 °F 100% 30.08 in 10.0 mi WSW 11.5 mph - N/A   Overcast
11:15 PM 37.4 °F 30.8 °F 37.4 °F 100% 30.08 in 10.0 mi WSW 9.2 mph - N/A   Overcast
11:35 PM 37.4 °F 29.8 °F 37.4 °F 100% 30.06 in 10.0 mi WSW 11.5 mph - N/A   Overcast
11:55 PM 37.4 °F 29.8 °F 35.6 °F 93% 30.05 in 10.0 mi WSW 11.5 mph - N/A   Mostly Cloudy